User: anonymous   Login
Location: Unspecified
(0.0000°N, 0.0000°E)
Time: 07:44:38
(UTC+00:00)
Language:

TBA - TO BE ASSIGNED - Orbit

View from above orbital plane
View from above orbital plane
View from above satellite
View from above satellite

Ground track
Ground track

The orbit is defined by the following mean orbital elements,

1 68707U          26145.12798242 +.00000000 +00000-0 +68315-3 0 00000
2 68707  53.1597  39.9320 0001114  93.6453 266.4684 15.49344478    08
Epoch (UTC): 25 May 2026 03:04:17
Eccentricity: 0.0001114
inclination: 53.1597°
perigee height: 418 km
apogee height: 419 km
right ascension of ascending node: 39.9320°
argument of perigee: 93.6453°
revolutions per day: 15.49344478
mean anomaly at epoch: 266.4684°

The dashed part of the orbit path shows where the satellite is in the earth's shadow,  

DLR